| time (UTC) | temp F | wind direction | speed MPH | gust MPH | rain 1hr in | rain 24hr in | rain mn in | humidity % | barometer mb |
| 20260507064725 | 46 | 108 | 8.0 | 11.0 | 0.00 | 0.00 | 0.00 | 54 | 1015.9 |
| 20260507062725 | 46 | 99 | 8.0 | 11.0 | 0.00 | 0.00 | 0.00 | 51 | 1015.8 |
| 20260507060725 | 45 | 79 | 6.0 | 11.0 | 0.00 | 0.00 | 0.00 | 50 | 1015.7 |
| 20260507054725 | 44 | 70 | 5.0 | 10.0 | 0.00 | 0.00 | 0.00 | 53 | 1015.6 |
| 20260507052725 | 44 | 52 | 6.0 | 9.0 | 0.00 | 0.00 | 0.00 | 54 | 1015.5 |
| 20260507050724 | 43 | 47 | 8.0 | 10.0 | 0.00 | 0.00 | 0.00 | 56 | 1015.5 |
| 20260507044724 | 42 | 40 | 9.0 | 11.0 | 0.00 | 0.00 | 0.00 | 60 | 1015.4 |
| 20260507040725 | 42 | 46 | 9.0 | 11.0 | 0.00 | 0.00 | 0.00 | 60 | 1015.4 |
| 20260507034725 | 41 | 45 | 9.0 | 12.0 | 0.00 | 0.00 | 0.00 | 58 | 1015.3 |
| 20260507032725 | 41 | 44 | 11.0 | 13.0 | 0.00 | 0.00 | 0.00 | 58 | 1015.2 |
| 20260507030725 | 41 | 43 | 11.0 | 13.0 | 0.00 | 0.00 | 0.00 | 58 | 1015.1 |
| 20260507024724 | 41 | 42 | 11.0 | 14.0 | 0.00 | 0.00 | 0.00 | 59 | 1014.9 |
| 20260507022724 | 41 | 42 | 11.0 | 14.0 | 0.00 | 0.00 | 0.00 | 60 | 1015.0 |
| 20260507020724 | 41 | 48 | 10.0 | 12.0 | 0.00 | 0.00 | 0.00 | 58 | 1015.0 |
| 20260507014724 | 41 | 52 | 9.0 | 13.0 | 0.00 | 0.00 | 0.00 | 57 | 1015.0 |
| 20260507012724 | 41 | 50 | 11.0 | 13.0 | 0.00 | 0.00 | 0.00 | 54 | 1014.9 |
| 20260507010724 | 41 | 48 | 11.0 | 14.0 | 0.00 | 0.00 | 0.00 | 55 | 1014.9 |
| 20260507004723 | 42 | 47 | 10.0 | 14.0 | 0.00 | 0.00 | 0.00 | 54 | 1014.7 |
| 20260507002724 | 42 | 44 | 12.0 | 14.0 | 0.00 | 0.00 | 0.00 | 53 | 1014.8 |
| 20260507000724 | 42 | 42 | 11.0 | 13.0 | 0.00 | 0.00 | 0.00 | 58 | 1014.7 |
| 20260506234724 | 42 | 41 | 10.0 | 13.0 | 0.00 | 0.00 | 0.00 | 58 | 1014.7 |
| 20260506232724 | 42 | 42 | 10.0 | 12.0 | 0.00 | 0.00 | 0.00 | 57 | 1014.7 |
| 20260506230725 | 42 | 34 | 10.0 | 13.0 | 0.00 | 0.00 | 0.00 | 62 | 1014.7 |
| 20260506224723 | 42 | 35 | 10.0 | 12.0 | 0.00 | 0.00 | 0.00 | 58 | 1014.7 |
| 20260506220724 | 43 | 27 | 10.0 | 11.0 | 0.00 | 0.00 | 0.00 | 63 | 1014.5 |
| 20260506214724 | 43 | 25 | 9.0 | 11.0 | 0.00 | 0.00 | 0.00 | 65 | 1014.4 |
| 20260506212724 | 41 | 5 | 9.0 | 10.0 | 0.00 | 0.00 | 0.00 | 66 | 1014.3 |
| 20260506210723 | 41 | 334 | 6.0 | 9.0 | 0.00 | 0.00 | 0.00 | 80 | 1014.2 |
| 20260506202723 | 41 | 331 | 6.0 | 9.0 | 0.00 | 0.00 | 0.00 | 85 | 1014.2 |
| 20260506200723 | 42 | 281 | 6.0 | 7.0 | 0.00 | 0.00 | 0.00 | 100 | 1014.2 |
| 20260506194723 | 41 | 264 | 8.0 | 9.0 | 0.00 | 0.00 | 0.00 | 100 | 1014.2 |
| 20260506192723 | 41 | 251 | 7.0 | 9.0 | 0.00 | 0.00 | 0.00 | 100 | 1014.2 |
| 20260506190723 | 42 | 263 | 8.0 | 10.0 | 0.00 | 0.00 | 0.00 | 98 | 1014.2 |
| 20260506184722 | 43 | 257 | 9.0 | 11.0 | 0.00 | 0.00 | 0.00 | 95 | 1014.1 |
| 20260506182724 | 43 | 256 | 10.0 | 12.0 | 0.00 | 0.00 | 0.00 | 95 | 1014.0 |
| 20260506180723 | 44 | 248 | 11.0 | 13.0 | 0.00 | 0.00 | 0.00 | 92 | 1014.1 |
| 20260506174723 | 44 | 244 | 11.0 | 14.0 | 0.00 | 0.00 | 0.00 | 83 | 1014.1 |
| 20260506172722 | 45 | 245 | 12.0 | 13.0 | 0.00 | 0.00 | 0.00 | 77 | 1014.1 |
| 20260506170722 | 46 | 245 | 12.0 | 14.0 | 0.00 | 0.00 | 0.00 | 75 | 1014.1 |
| 20260506164721 | 47 | 243 | 11.0 | 13.0 | 0.00 | 0.00 | 0.00 | 69 | 1014.0 |
| 20260506162722 | 47 | 246 | 13.0 | 15.0 | 0.00 | 0.00 | 0.00 | 65 | 1014.0 |
| 20260506160722 | 48 | 248 | 12.0 | 14.0 | 0.00 | 0.00 | 0.00 | 65 | 1014.0 |
| 20260506152722 | 48 | 253 | 15.0 | 17.0 | 0.00 | 0.00 | 0.00 | 68 | 1014.0 |
| 20260506150721 | 47 | 255 | 17.0 | 19.0 | 0.00 | 0.00 | 0.00 | 70 | 1014.1 |
| 20260506144721 | 46 | 256 | 19.0 | 23.0 | 0.00 | 0.00 | 0.00 | 74 | 1014.2 |
| 20260506142721 | 46 | 257 | 20.0 | 23.0 | 0.00 | 0.00 | 0.00 | 72 | 1014.2 |
| 20260506140721 | 47 | 255 | 18.0 | 22.0 | 0.00 | 0.00 | 0.00 | 66 | 1014.4 |
| 20260506132721 | 47 | 254 | 19.0 | 24.0 | 0.00 | 0.00 | 0.00 | 66 | 1014.3 |
| 20260506130721 | 47 | 251 | 21.0 | 27.0 | 0.00 | 0.00 | 0.00 | 61 | 1014.3 |
| 20260506124721 | 48 | 254 | 24.0 | 28.0 | 0.00 | 0.00 | 0.00 | 58 | 1014.2 |
| 20260506122721 | 48 | 249 | 20.0 | 28.0 | 0.00 | 0.00 | 0.00 | 59 | 1014.4 |
| 20260506120721 | 47 | 245 | 21.0 | 26.0 | 0.00 | 0.00 | 0.00 | 65 | 1014.5 |
| 20260506114722 | 48 | 246 | 21.0 | 28.0 | 0.00 | 0.00 | 0.00 | 62 | 1014.4 |
| 20260506112721 | 46 | 241 | 20.0 | 24.0 | 0.00 | 0.00 | 0.00 | 72 | 1014.4 |
| 20260506110721 | 45 | 243 | 20.0 | 23.0 | 0.00 | 0.00 | 0.00 | 87 | 1014.5 |
| 20260506104722 | 46 | 245 | 21.0 | 24.0 | 0.00 | 0.00 | 0.00 | 81 | 1014.4 |
| 20260506102722 | 46 | 243 | 20.0 | 24.0 | 0.00 | 0.00 | 0.00 | 80 | 1014.3 |
| 20260506100722 | 46 | 243 | 19.0 | 23.0 | 0.00 | 0.00 | 0.00 | 81 | 1014.1 |
| 20260506094722 | 46 | 243 | 17.0 | 20.0 | 0.00 | 0.00 | 0.00 | 85 | 1014.1 |
| 20260506092722 | 47 | 244 | 17.0 | 20.0 | 0.00 | 0.00 | 0.00 | 76 | 1013.7 |
| 20260506090722 | 47 | 245 | 15.0 | 18.0 | 0.00 | 0.00 | 0.00 | 69 | 1013.6 |
| 20260506084722 | 49 | 257 | 15.0 | 19.0 | 0.00 | 0.00 | 0.00 | 70 | 1013.6 |
| 20260506082722 | 49 | 252 | 15.0 | 18.0 | 0.00 | 0.00 | 0.00 | 76 | 1013.5 |
| 20260506080722 | 47 | 244 | 17.0 | 19.0 | 0.00 | 0.00 | 0.00 | 81 | 1013.4 |
| 20260506072722 | 44 | 237 | 15.0 | 17.0 | 0.00 | 0.00 | 0.00 | 86 | 1013.2 |
| 20260506070722 | 46 | 248 | 11.0 | 13.0 | 0.00 | 0.00 | 0.00 | 65 | 1013.1 |